DMSP 5D-2 F13 DEB, 40521

Orbit data source: Space-Track

DMSP 5D-2 F13 DEB, 40521 is space debris in SSO originally from a launch on Fri, 24 Mar 1995 UTC launched from the Air Force Western Test Range (AFWTR). Debris objects in space refer to the collection of defunct objects orbiting the Earth. Examples of debris include non-operational satellites, rocket bodies, and fragments generated from explosions, collisions, or faulty payload assembly.

Loading next visibility...
Identifier
40521, 1995-015DH
Orbit
SSO
Country
Flag of USUS
Related business
Manufacturer
Unknown
Mission
Spacecraft
Bus & Motor
Unknown
Mass
Unknown
Launch date (UTC)
1995-03-24 (31 years ago)
Launch vehicle
Unknown
Launch site
Air Force Western Test Range (AFWTR)
Object type
Payload
Rocket body
Debris
Shape & HBR
Unknown shape, 0.1 m
Radar Cross Section
Medium (>0.1 m² and <1 m²)

Expand to show TLE details & history
Last TLE update: 1 day ago

TLE from 1 day ago
0 DMSP 5D-2 F13 DEB
1 40521U 95015DH  26235.70720179  .00008755  00000-0  16412-2 0  9994
2 40521  98.5853 324.6431 0020095 246.1462 113.7633 14.64891599598154
Epoch: 2026-08-23T16:58Z
TLE epoch observation values (Epoch: 2026-08-23T16:58:22.234Z)
Latitude
-0.0001°
Longitude
98.05108°
Altitude
686.141 km
Speed
7.51 km/s
True Right ascension
21h 38m 34s
True Declination
0° 00' 00"
Sunlit
Object was in full shadow at epoch
Visualization orbit readout
Latitude
Unknown
Longitude
Unknown
Altitude
Unknown
Speed
Unknown
Apparent Right ascension
Unknown
Apparent Declination
Unknown
Sunlit
N/A
Visualization observer readout
Local Sidereal Time
18:20:46
Azimuth
Unknown
Elevation
Unknown
Doppler factor
Unknown
Orbital elements
Apogee altitude
688.689 km
Perigee altitude
660.344 km
Semi-major axis
7,052.653 km
Eccentricity
0.00201
Inclination
98.5853°
RAAN
324.6431°
Arg. of periapsis
246.1462°
True anomaly
113.97384°
Mean anomaly
113.7633°
Eccentric anomaly
113.86859°
Mean motion
3.6645 °/min
Orbital period
98.24 mins
BSTAR
0.0016412
Loading maneuver chart data...
Computing Atmospheric mass density...

Documentation

Showing up to 5 results
|